CSW86 ENAL-LDSP

Flight info

Callsign CSW86
Flight time N/A
Altitude 37000
Route GIGI1F GIGIR NERDO ALASA M852 POVEL Z94 ABGUS TABAT M736 RUDNO SIMBA NIPEL SABAD L862 OKLAX OKLA2Z
Aircraft B747/J-ICAO/L

Departure

Time 2026-04-28 19:48
Airport Ålesund Airport (ENAL)

Arrival

Time N/A
Airport Split Saint Jerome Airport (LDSP)
Time Latitude Longitude Altitude Speed Heading
2026-04-28 19:28 62.55827 6.11055 57 ft 0 kts 181°
2026-04-28 19:37 62.55824 6.11058 57 ft 1 kts 169°
2026-04-28 19:37 62.55815 6.11080 53 ft 1 kts 123°
2026-04-28 19:37 62.55816 6.11102 55 ft 1 kts 88°
2026-04-28 19:38 62.55821 6.11118 55 ft 1 kts 57°
2026-04-28 19:38 62.55836 6.11161 49 ft 18 kts 47°
2026-04-28 19:38 62.55954 6.11347 53 ft 23 kts 47°
2026-04-28 19:38 62.56085 6.11374 52 ft 21 kts 304°
2026-04-28 19:39 62.56024 6.10921 51 ft 52 kts 253°
2026-04-28 19:39 62.55875 6.10217 47 ft 47 kts 248°
2026-04-28 19:39 62.55744 6.09603 48 ft 43 kts 247°
2026-04-28 19:39 62.55658 6.09117 47 ft 26 kts 249°
2026-04-28 19:40 62.55559 6.08988 42 ft 9 kts 145°
2026-04-28 19:40 62.55554 6.09016 44 ft 2 kts 103°
2026-04-28 19:40 62.55561 6.09044 45 ft 3 kts 49°
2026-04-28 19:40 62.55601 6.09071 44 ft 13 kts 22°
2026-04-28 19:41 62.55632 6.09137 46 ft 2 kts 55°
2026-04-28 19:41 62.55639 6.09163 47 ft 0 kts 60°
2026-04-28 19:47 62.55718 6.09516 46 ft 60 kts 63°
2026-04-28 19:47 62.55982 6.10791 50 ft 123 kts 59°
2026-04-28 19:47 62.56454 6.12824 57 ft 177 kts 58°
2026-04-28 19:47 62.57123 6.15394 118 ft 205 kts 67°
2026-04-28 19:48 62.57639 6.18210 702 ft 202 kts 73°
2026-04-28 19:48 62.58045 6.21184 1075 ft 216 kts 63°
2026-04-28 19:48 62.58764 6.24206 950 ft 221 kts 58°
2026-04-28 19:48 62.59535 6.27186 1143 ft 229 kts 56°
2026-04-28 19:49 62.60330 6.30202 1349 ft 232 kts 56°
2026-04-28 19:49 62.61132 6.33238 1467 ft 237 kts 56°
2026-04-28 19:49 62.61968 6.36384 1755 ft 246 kts 55°
2026-04-28 19:49 62.62849 6.39695 1946 ft 259 kts 55°
2026-04-28 19:50 62.64653 6.46536 2787 ft 258 kts 55°
2026-04-28 19:50 62.65529 6.49925 3263 ft 256 kts 55°
2026-04-28 19:50 62.66384 6.53277 3566 ft 262 kts 55°
2026-04-28 19:51 62.67292 6.56829 3725 ft 272 kts 55°
2026-04-28 19:51 62.68217 6.60450 4030 ft 274 kts 55°
2026-04-28 19:51 62.69143 6.64094 4321 ft 276 kts 55°
2026-04-28 19:51 62.70071 6.67772 4637 ft 277 kts 55°
2026-04-28 19:52 62.70997 6.71458 4928 ft 278 kts 55°
2026-04-28 19:52 62.71923 6.75174 5221 ft 279 kts 55°
2026-04-28 19:52 62.72880 6.78854 5583 ft 276 kts 45°
2026-04-28 19:52 62.74352 6.81261 6059 ft 260 kts
2026-04-28 19:53 62.76090 6.81458 6422 ft 248 kts 335°
2026-04-28 19:53 62.77500 6.79498 6743 ft 242 kts 302°
2026-04-28 19:53 62.78098 6.76136 7053 ft 242 kts 270°
2026-04-28 19:53 62.77904 6.72501 7270 ft 249 kts 248°
2026-04-28 19:54 62.76995 6.69245 7497 ft 258 kts 223°
2026-04-28 19:54 62.75468 6.67123 7740 ft 266 kts 195°
2026-04-28 19:54 62.73622 6.66759 8007 ft 272 kts 167°
2026-04-28 19:54 62.71759 6.67772 8114 ft 280 kts 160°
2026-04-28 19:55 62.69894 6.69017 8184 ft 287 kts 160°
2026-04-28 19:55 62.67941 6.70282 8322 ft 291 kts 161°
2026-04-28 19:55 62.66010 6.71459 8414 ft 293 kts 161°
2026-04-28 19:55 62.64030 6.72649 8570 ft 295 kts 161°
2026-04-28 19:56 62.62605 6.73523 8663 ft 297 kts 161°
2026-04-28 19:56 62.60612 6.74752 8785 ft 298 kts 161°
2026-04-28 19:56 62.58610 6.75979 8916 ft 299 kts 161°
2026-04-28 19:56 62.56616 6.77183 9261 ft 291 kts 161°
2026-04-28 19:57 62.54687 6.78341 9713 ft 282 kts 161°
2026-04-28 19:57 62.52825 6.79463 10152 ft 273 kts 161°
2026-04-28 19:57 62.51039 6.80533 10549 ft 266 kts 161°
2026-04-28 19:57 62.49278 6.81589 10942 ft 258 kts 161°
2026-04-28 19:58 62.47582 6.82601 11388 ft 250 kts 161°
2026-04-28 19:58 62.45891 6.83627 11509 ft 255 kts 161°
2026-04-28 19:58 62.44167 6.84669 11670 ft 258 kts 160°
2026-04-28 19:58 62.42441 6.85710 11947 ft 256 kts 160°
2026-04-28 19:59 62.40726 6.86742 12176 ft 257 kts 160°
2026-04-28 19:59 62.38991 6.87793 12290 ft 261 kts 160°
2026-04-28 19:59 62.37250 6.88843 12470 ft 263 kts 160°
2026-04-28 19:59 62.35491 6.89898 12716 ft 262 kts 160°
2026-04-28 20:00 62.33732 6.90952 12925 ft 263 kts 160°
2026-04-28 20:00 62.32555 6.91659 13008 ft 265 kts 160°
2026-04-28 20:00 62.30743 6.92747 13153 ft 267 kts 160°
2026-04-28 20:00 62.28947 6.93821 13359 ft 268 kts 160°
2026-04-28 20:01 62.27140 6.94901 13554 ft 269 kts 160°
2026-04-28 20:01 62.25354 6.95970 13710 ft 271 kts 159°
2026-04-28 20:01 62.23526 6.97061 13853 ft 273 kts 160°
2026-04-28 20:01 62.21693 6.98151 14070 ft 273 kts 159°
2026-04-28 20:02 62.19860 6.99240 14234 ft 273 kts 159°
2026-04-28 20:02 62.18017 7.00337 14329 ft 275 kts 159°
2026-04-28 20:02 62.16173 7.01432 14446 ft 276 kts 159°
2026-04-28 20:02 62.14313 7.02534 14566 ft 278 kts 159°
2026-04-28 20:03 62.12448 7.03639 14724 ft 278 kts 159°
2026-04-28 20:03 62.10575 7.04744 14859 ft 279 kts 159°
2026-04-28 20:03 62.08674 7.05869 14948 ft 288 kts 159°
2026-04-28 20:03 62.06729 7.07027 15045 ft 293 kts 159°
2026-04-28 20:04 62.04722 7.08232 15012 ft 306 kts 159°
2026-04-28 20:04 62.02643 7.09460 15144 ft 313 kts 159°
2026-04-28 20:04 62.00516 7.10715 15288 ft 320 kts 159°
2026-04-28 20:04 61.98373 7.11981 15427 ft 325 kts 159°
2026-04-28 20:05 61.96169 7.13274 15575 ft 331 kts 159°
2026-04-28 20:05 61.93922 7.14595 15732 ft 338 kts 159°
2026-04-28 20:05 61.91629 7.15943 15869 ft 345 kts 159°
2026-04-28 20:05 61.89278 7.17323 16025 ft 355 kts 159°
2026-04-28 20:06 61.86860 7.18738 16151 ft 365 kts 159°
2026-04-28 20:06 61.84387 7.20185 16251 ft 370 kts 159°
2026-04-28 20:06 61.81911 7.21622 16416 ft 376 kts 159°
2026-04-28 20:06 61.79353 7.23115 16520 ft 387 kts 159°
2026-04-28 20:07 61.76733 7.24641 16645 ft 395 kts 159°
2026-04-28 20:07 61.74929 7.25688 16729 ft 398 kts 159°
2026-04-28 20:07 61.71401 7.27707 16826 ft 398 kts 159°
2026-04-28 20:07 61.68735 7.29242 16907 ft 397 kts 159°
2026-04-28 20:08 61.66047 7.30787 16976 ft 399 kts 159°
2026-04-28 20:08 61.63368 7.32321 17052 ft 399 kts 159°
2026-04-28 20:08 61.60688 7.33849 17128 ft 400 kts 159°
2026-04-28 20:08 61.58001 7.35383 17188 ft 399 kts 159°
2026-04-28 20:09 61.55321 7.36911 17236 ft 400 kts 159°
2026-04-28 20:09 61.52631 7.38437 17307 ft 400 kts 159°
2026-04-28 20:09 61.49937 7.39971 17328 ft 399 kts 159°
2026-04-28 20:09 61.47231 7.41505 17438 ft 403 kts 159°
2026-04-28 20:10 61.44542 7.43024 17471 ft 400 kts 159°
2026-04-28 20:10 61.41870 7.44529 17555 ft 402 kts 159°
2026-04-28 20:10 61.39165 7.46055 17605 ft 403 kts 159°
2026-04-28 20:10 61.36466 7.47575 17669 ft 401 kts 159°
2026-04-28 20:11 61.33767 7.49088 17725 ft 403 kts 159°
2026-04-28 20:11 61.31052 7.50612 17790 ft 403 kts 159°
2026-04-28 20:11 61.28343 7.52126 17851 ft 403 kts 159°
2026-04-28 20:11 61.25635 7.53636 17901 ft 403 kts 158°
2026-04-28 20:12 61.22928 7.55147 17972 ft 402 kts 159°
2026-04-28 20:12 61.20230 7.56651 18037 ft 401 kts 159°
2026-04-28 20:12 61.17507 7.58165 18102 ft 406 kts 159°
2026-04-28 20:12 61.15709 7.59162 18140 ft 403 kts 159°
2026-04-28 20:13 61.12071 7.61172 18229 ft 405 kts 159°
2026-04-28 20:13 61.09351 7.62676 18282 ft 404 kts 159°
2026-04-28 20:13 61.06631 7.64177 18333 ft 403 kts 158°
2026-04-28 20:13 61.03920 7.65669 18413 ft 406 kts 158°
2026-04-28 20:14 61.01189 7.67175 18474 ft 406 kts 159°
2026-04-28 20:14 60.98486 7.68654 18552 ft 406 kts 159°
2026-04-28 20:14 60.95749 7.70151 18622 ft 408 kts 159°
2026-04-28 20:14 60.93003 7.71654 18689 ft 408 kts 159°
2026-04-28 20:15 60.90260 7.73152 18735 ft 408 kts 159°
2026-04-28 20:15 60.88441 7.74142 18765 ft 408 kts 159°
2026-04-28 20:15 60.85696 7.75634 18821 ft 409 kts 159°
2026-04-28 20:15 60.82949 7.77127 18881 ft 409 kts 159°
2026-04-28 20:16 60.80192 7.78621 18949 ft 410 kts 159°
2026-04-28 20:16 60.77424 7.80120 18995 ft 410 kts 159°
2026-04-28 20:16 60.74669 7.81609 19050 ft 410 kts 159°
2026-04-28 20:16 60.71907 7.83098 19091 ft 409 kts 159°
2026-04-28 20:17 60.69143 7.84585 19148 ft 413 kts 159°
2026-04-28 20:17 60.66368 7.86079 19213 ft 411 kts 159°
2026-04-28 20:17 60.63601 7.87561 19266 ft 412 kts 159°
2026-04-28 20:17 60.60818 7.89050 19324 ft 412 kts 159°
2026-04-28 20:18 60.58055 7.90513 19624 ft 408 kts 159°
2026-04-28 20:18 60.55309 7.91978 20001 ft 408 kts 159°
2026-04-28 20:18 60.52601 7.93426 20363 ft 407 kts 159°
2026-04-28 20:18 60.49860 7.94880 20739 ft 406 kts 159°
2026-04-28 20:19 60.47129 7.96320 21109 ft 406 kts 159°
2026-04-28 20:19 60.44400 7.97760 21485 ft 404 kts 159°
2026-04-28 20:19 60.41683 7.99193 21865 ft 402 kts 159°
2026-04-28 20:19 60.38997 8.00606 22250 ft 399 kts 158°
2026-04-28 20:20 60.36314 8.02012 22642 ft 395 kts 158°
2026-04-28 20:20 60.33670 8.03394 23024 ft 390 kts 158°
2026-04-28 20:20 60.31050 8.04762 23406 ft 385 kts 158°
2026-04-28 20:20 60.28480 8.06101 23787 ft 378 kts 158°
2026-04-28 20:21 60.25955 8.07412 24123 ft 371 kts 158°
2026-04-28 20:21 60.23466 8.08711 24320 ft 367 kts 158°
2026-04-28 20:21 60.21006 8.09990 24487 ft 363 kts 158°
2026-04-28 20:21 60.18612 8.11230 24654 ft 358 kts 158°
2026-04-28 20:22 60.16209 8.12481 24692 ft 357 kts 158°
2026-04-28 20:22 60.13789 8.13746 24627 ft 361 kts 158°
2026-04-28 20:22 60.11341 8.15020 24606 ft 363 kts 158°
2026-04-28 20:22 60.08904 8.16274 24696 ft 360 kts 158°
2026-04-28 20:23 60.06483 8.17525 24752 ft 359 kts 158°
2026-04-28 20:23 60.04059 8.18781 24755 ft 360 kts 158°
2026-04-28 20:23 60.01620 8.20043 24714 ft 363 kts 158°
2026-04-28 20:23 59.99175 8.21301 24750 ft 362 kts 158°
2026-04-28 20:24 59.96774 8.22527 24849 ft 359 kts 158°
2026-04-28 20:24 59.94328 8.23782 24875 ft 359 kts 158°
2026-04-28 20:24 59.91897 8.25036 24825 ft 362 kts 158°
2026-04-28 20:24 59.89457 8.26287 24808 ft 363 kts 158°
2026-04-28 20:25 59.87047 8.27512 24860 ft 361 kts 158°
2026-04-28 20:25 59.84622 8.28746 24935 ft 359 kts 158°
2026-04-28 20:25 59.82200 8.29985 24920 ft 360 kts 158°
2026-04-28 20:25 59.79765 8.31229 24873 ft 363 kts 158°
2026-04-28 20:26 59.77330 8.32463 24917 ft 362 kts 158°
2026-04-28 20:26 59.74885 8.33697 24992 ft 360 kts 158°
2026-04-28 20:26 59.72455 8.34934 24962 ft 362 kts 158°
2026-04-28 20:26 59.70010 8.36172 24976 ft 362 kts 158°
2026-04-28 20:27 59.67555 8.37409 24980 ft 364 kts 158°
2026-04-28 20:27 59.65103 8.38646 25000 ft 363 kts 158°
2026-04-28 20:27 59.62645 8.39886 24986 ft 365 kts 158°
2026-04-28 20:27 59.60172 8.41132 24987 ft 368 kts 158°
2026-04-28 20:28 59.57684 8.42383 24988 ft 370 kts 158°
2026-04-28 20:28 59.55182 8.43639 24991 ft 372 kts 158°
2026-04-28 20:28 59.52674 8.44898 24988 ft 375 kts 158°
2026-04-28 20:28 59.50115 8.46179 24992 ft 379 kts 158°
2026-04-28 20:29 59.47550 8.47462 24985 ft 382 kts 158°
2026-04-28 20:29 59.44956 8.48759 24986 ft 386 kts 158°
2026-04-28 20:29 59.42374 8.50046 24992 ft 391 kts 158°
2026-04-28 20:29 59.39721 8.51368 24992 ft 395 kts 158°
2026-04-28 20:30 59.37038 8.52702 24997 ft 400 kts 158°
2026-04-28 20:30 59.34314 8.54055 25008 ft 406 kts 158°
2026-04-28 20:30 59.31545 8.55432 24983 ft 413 kts 158°
2026-04-28 20:30 59.28734 8.56824 25017 ft 418 kts 158°
2026-04-28 20:31 59.25906 8.58212 25140 ft 419 kts 158°
2026-04-28 20:31 59.23072 8.59605 25272 ft 422 kts 158°
2026-04-28 20:31 59.20206 8.61017 25388 ft 425 kts 158°
2026-04-28 20:31 59.17331 8.62427 25501 ft 428 kts 158°
2026-04-28 20:32 59.14433 8.63844 25615 ft 430 kts 158°
2026-04-28 20:32 59.11519 8.65268 25720 ft 434 kts 158°
2026-04-28 20:32 59.08629 8.66680 25828 ft 437 kts 158°
2026-04-28 20:32 59.05651 8.68131 25924 ft 441 kts 158°
2026-04-28 20:33 59.02657 8.69587 26039 ft 444 kts 158°
2026-04-28 20:33 58.99646 8.71049 26135 ft 448 kts 158°
2026-04-28 20:33 58.96605 8.72524 26239 ft 452 kts 158°
2026-04-28 20:33 58.93541 8.74005 26342 ft 454 kts 158°
2026-04-28 20:34 58.90466 8.75485 26425 ft 455 kts 158°
2026-04-28 20:34 58.87392 8.76962 26523 ft 456 kts 158°
2026-04-28 20:34 58.84309 8.78443 26597 ft 456 kts 158°
2026-04-28 20:34 58.81224 8.79922 26692 ft 457 kts 158°
2026-04-28 20:35 58.78137 8.81399 26774 ft 457 kts 158°
2026-04-28 20:35 58.75080 8.82857 26851 ft 458 kts 158°
2026-04-28 20:35 58.71986 8.84332 26939 ft 458 kts 158°
2026-04-28 20:35 58.68882 8.85809 27022 ft 459 kts 158°
2026-04-28 20:36 58.65771 8.87287 27108 ft 459 kts 158°
2026-04-28 20:36 58.62661 8.88760 27183 ft 460 kts 158°
2026-04-28 20:36 58.59555 8.90231 27267 ft 460 kts 158°
2026-04-28 20:36 58.56436 8.91704 27349 ft 461 kts 158°
2026-04-28 20:37 58.53354 8.93156 27447 ft 461 kts 158°
2026-04-28 20:37 58.50231 8.94626 27509 ft 462 kts 158°
2026-04-28 20:37 58.47104 8.96095 27596 ft 463 kts 158°
2026-04-28 20:37 58.43980 8.97550 27841 ft 460 kts 158°
2026-04-28 20:38 58.40877 8.99000 28100 ft 459 kts 158°
2026-04-28 20:38 58.37780 9.00448 28351 ft 457 kts 158°
2026-04-28 20:38 58.34692 9.01885 28619 ft 455 kts 158°
2026-04-28 20:38 58.31624 9.03304 28891 ft 452 kts 158°
2026-04-28 20:39 58.28571 9.04718 29146 ft 450 kts 158°
2026-04-28 20:39 58.25532 9.06125 29430 ft 447 kts 158°
2026-04-28 20:39 58.22512 9.07519 29683 ft 445 kts 158°
2026-04-28 20:39 58.19543 9.08885 29948 ft 441 kts 158°
2026-04-28 20:40 58.16569 9.10250 30242 ft 436 kts 158°
2026-04-28 20:40 58.13654 9.11575 30669 ft 425 kts 157°
2026-04-28 20:40 58.10812 9.12869 31052 ft 414 kts 157°
2026-04-28 20:40 58.08054 9.14124 31396 ft 400 kts 156°
2026-04-28 20:41 58.05375 9.15348 31537 ft 394 kts 156°
2026-04-28 20:41 58.02699 9.16592 31258 ft 400 kts 156°
2026-04-28 20:41 57.99951 9.17870 30863 ft 411 kts 157°
2026-04-28 20:41 57.97159 9.19219 30457 ft 422 kts 153°
2026-04-28 20:42 57.94300 9.21223 29105 ft 451 kts 144°
2026-04-28 20:42 57.91459 9.23783 28866 ft 457 kts 142°
2026-04-28 20:42 57.88660 9.26935 27320 ft 484 kts 135°
2026-04-28 20:42 57.85797 9.30541 25229 ft 516 kts 140°
2026-04-28 20:43 57.82738 9.34454 23476 ft 543 kts 138°
2026-04-28 20:43 57.79661 9.38594 22859 ft 537 kts 138°
2026-04-28 20:43 57.76539 9.42192 23324 ft 513 kts 148°
2026-04-28 20:43 57.73252 9.44376 23843 ft 496 kts 169°
2026-04-28 20:44 57.69821 9.44331 23516 ft 491 kts 192°
2026-04-28 20:44 57.66550 9.42886 23531 ft 476 kts 198°
2026-04-28 20:44 57.63370 9.41239 23832 ft 474 kts 197°
2026-04-28 20:44 57.60134 9.39858 23948 ft 481 kts 193°
2026-04-28 20:45 57.56832 9.39045 23705 ft 485 kts 184°
2026-04-28 20:45 57.53449 9.39084 22889 ft 488 kts 175°
2026-04-28 20:45 57.50061 9.39795 22034 ft 491 kts 168°
2026-04-28 20:45 57.46731 9.41139 21603 ft 485 kts 163°
2026-04-28 20:46 57.43486 9.42608 21471 ft 474 kts 165°
2026-04-28 20:46 57.40299 9.43958 21167 ft 466 kts 166°
2026-04-28 20:46 57.37140 9.45323 20682 ft 464 kts 165°
2026-04-28 20:46 57.33997 9.46601 20399 ft 458 kts 167°
2026-04-28 20:47 57.30942 9.47608 20436 ft 445 kts 171°
2026-04-28 20:47 57.27849 9.48309 20434 ft 449 kts 174°
2026-04-28 20:47 57.24772 9.48815 21063 ft 438 kts 175°
2026-04-28 20:47 57.21764 9.49147 21825 ft 432 kts 183°
2026-04-28 20:48 57.18678 9.48758 20276 ft 462 kts 186°
2026-04-28 20:48 57.15280 9.48325 17043 ft 518 kts 173°
2026-04-28 20:48 57.11790 9.50607 13388 ft 551 kts 142°